Regional Weather Roundup
Issued by NWS Jackson, KY

Home | Current Version | Previous Version | Text Only | Print | Product List | Glossary Off
Versions: 1 2 3 4 5 6 7 8 9 10 11 12 13 14 15 16 17 18 19 20 21 22 23 24 25 26 27 28 29 30 31 32 33 34 35 36 37 38 39 40 41 42 43 44 45 46 47 48 49 50

000
ASUS43 KJKL 020410
RWRJKL

EAST KENTUCKY HOURLY WEATHER ROUNDUP
NATIONAL WEATHER SERVICE JACKSON KY
1200 AM EDT MON MAY 02 2016

NOTE: "FAIR" INDICATES FEW OR NO CLOUDS BELOW 12,000 FEET WITH
NO SIGNIFICANT WEATHER AND/OR OBSTRUCTIONS TO VISIBILITY.

* THESE REPORTS ARE NOT UNDER NWS QUALITY CONTROL AND MAY NOT
  REPORT WEATHER SUCH AS PRECIPITATION AND FOG.

KYZ079-080-083-085-087-088-110-112-115-119-120-020500
...EASTERN KENTUCKY...

CITY           SKY/WX    TMP DP  RH WIND       PRES   REMARKS
JACKSON        CLEAR     62  58  86 VRB3      29.97F
LONDON         PTCLDY    65  60  84 CALM      29.97R
SOMERSET*      CLEAR     66  61  82 CALM      29.97S
MONTICELLO*    CLEAR     69  64  84 W14       29.98S
WILLIAMSBURG*  CLEAR     63  59  88 SW5       29.97F
MIDDLESBORO*   CLEAR     65  64  99 CALM      30.00R
HARLAN APT*    CLOUDY    61  59  94 CALM      30.01S
HAZARD APT*    CLEAR     63  63 100 CALM      29.97F
BLACK MTN*       N/A     57  59 100 S6          N/A
BIG SANDY APT* PTCLDY    62  61  96 S7        29.97F
MOREHEAD APT*  CLOUDY    61  59  94 S8        29.94F
$$

KYZ035-036-041-042-044-050-067-078-099-020500
...CENTRAL KENTUCKY...

CITY           SKY/WX    TMP DP  RH WIND       PRES   REMARKS
MT STERLING*   CLEAR     61  61 100 S7        29.94F
FLEMING/MASON* CLOUDY   N/A N/A N/A S9        29.92S
DANVILLE*      CLEAR     61  59  94 S3        29.95S
RICHMOND*      MOCLDY    63  59  88 SE6       29.94R
LEXINGTON      CLEAR     63  59  87 S10       29.92S
FRANKFORT      PTCLDY    64  60  87 SE6       29.89F
LOUISVILLE     PTCLDY    68  64  87 SW5       29.88S
LEBANON*         N/A     68  63  83 S8        29.93S
BOWLING GREEN  CLEAR     68  60  75 SW3       29.94S
$$

KYZ091>093-OHZ055-061-077-WVZ005-015-034-035-042-020500
...SOUTHERN OHIO/WEST VIRGINIA...

CITY           SKY/WX    TMP DP  RH WIND       PRES   REMARKS
COVINGTON      CLOUDY    61  59  94 S5        29.88S THUNDER
COLUMBUS       CLOUDY    60  59  96 CALM      29.86F
DAYTON         CLOUDY    59  58  96 SE6       29.88S
WILMINGTON     MOCLDY    60  56  86 S7        29.87F
HUNTINGTON     MOCLDY    60  58  92 S7        29.92F
CHARLESTON     MOCLDY    61  58  90 CALM      29.93F
PINEVILLE*     LGT RAIN  60  58  90 MISG      30.04F
BECKLEY        CLOUDY    57  55  93 S6        30.02F
$$

VAZ002-007-008-TNZ017-027-036-066-071-020500
...SOUTHWEST VIRGINIA/EAST TENNESSEE...

CITY           SKY/WX    TMP DP  RH WIND       PRES   REMARKS
WISE*          FOG       59  59 100 CALM      30.04F VSB 1/2
BRISTOL        PTCLDY    69  62  78 SW6       30.00F
MORRISTOWN*    PTCLDY    68  64  88 W6        29.99F
SEVIERVILLE*   CLEAR     70  61  73 CALM      29.98F
KNOXVILLE      CLOUDY    69  65  86 SW8       29.99F
OAK RIDGE      PTCLDY    69  63  81 CALM      30.00F
CROSSVILLE     CLEAR     67  61  81 SW5       30.02S
NASHVILLE      CLEAR     69  63  81 SW7       29.98R
$$

...KEY TO REMARKS...
VSB - VISIBILITY IN MILES
WCI - WIND CHILL INDEX
HX  - HEAT INDEX

$$



USA.gov is the U.S. government's official web portal to all federal, state and local government web resources and services.